Find Local Weather

World > North America > United States > New Hampshire

Portsmouth, New Hampshire Regional Weather

Lat: 43.07N, Lon: 70.76W
Wx Zone: NHZ014
Warning FLW WEATHER ALERT - (More Info. Click Here) Warning
Feedback

Portsmouth, NH Regional Weather

Expires:201905212100;;238599
ASUS41 KBOX 212010
RWRBOX

REGIONAL WEATHER ROUNDUP
NATIONAL WEATHER SERVICE BOSTON/NORTON MA
400 PM EDT TUE MAY 21 2019

NOTE:  "FAIR" INDICATES FEW OR NO CLOUDS BELOW 12,000 FEET WITH NO 
SIGNIFICANT WEATHER AND/OR OBSTRUCTIONS TO VISIBILITY.


MEZ002-015-021-024-NHZ003-005-008-011-012-014-VTZ005-008-212100-
NORTHERN NEW ENGLAND
  
CITY           SKY/WX    TMP DP  RH WIND       PRES   REMARKS
PORTLAND ME    PTSUNNY   61  37  41 W26G33    29.74R                  
BANGOR ME      PTSUNNY   58  38  47 NW17G30   29.64R                  
CONCORD NH     PTSUNNY   62  35  36 NW22G31   29.82R                  
MANCHESTER NH  PTSUNNY   63  34  33 NW21G30   29.81R                  
NASHUA NH      PTSUNNY   64  34  32 W25G41    29.81R                  
PORTSMOUTH NH  PTSUNNY   63  34  34 NW20G25   29.77R                  
JAFFREY NH     PTSUNNY   61  34  36 NW12G24   29.86R                  
KEENE NH       CLOUDY    61  36  39 NW9G21    29.86R                  
BURLINGTON VT  PTSUNNY   61  35  37 NW25G35   29.90R                  
MT. WASHINGTON SNOWSHWR  27  27 100 W76G87      N/A  VSB 1/16WCI   3  
$$


SKY/WX - Weather  TMP - Temperature  DP - Dew Point  RH - Relative Humidity
WIND - Wind Direction/Speed PRES - Barometric Pressure VSB - Visibility
WCI - Wind Chill Index E13G22 Wind - East Wind 13 mph/Gusts of 22 mph